[[{"header":{"parameterUnit":"m.s-1","parameterCategory":1,"la1":30.2992,"la2":30.254,"lo1":-89.0895,"lo2":-89.0443,"dy":0.0025,"dx":0.0025,"nx":19,"ny":19,"refTime":"2026-03-26T09:00:00:Z","depth":0,"parameterNumber":2,"parameterNumberName":"U-component_of_WINDS"},"data":[0,0,0,0.7462,0.7463,0.751,0.751,0.7572,0.7573,0,0,0,0,0,0,0,0,0,0,0,0.7451,0.7451,0.7462,0.7463,0.751,0.751,0.7572,0.7573,0,0,0,0,0,0,0,0,0,0,0,0.745,0.7451,0.7452,0.7464,0.751,0.751,0.7572,0.7536,0,0,0,0,0,0,0,0,0,0,0.749,0.7482,0.7451,0.7452,0.7464,0.751,0.751,0.7534,0.7538,0.7552,0,0.7567,0,0.7571,0.7577,0.7578,0,0,0,0.7462,0.7478,0.7489,0.7452,0.7464,0.751,0.7489,0.7536,0.7541,0.7558,0.7567,0.757,0.7572,0.7578,0.7578,0.7668,0.7669,0,0,0.7459,0.746,0.7486,0.7492,0.7486,0.7487,0.749,0.7539,0.7549,0.7568,0.7571,0.7573,0.7578,0.7579,0.7668,0.7668,0,0,0,0.7453,0.7458,0.7468,0.749,0.7498,0.7488,0.7492,0.7547,0.755,0.7572,0.7574,0.7579,0.7579,0.7667,0.7668,0.7694,0,0,0,0.7451,0.7455,0.7467,0.7468,0.7497,0.7523,0.7499,0.7547,0.7552,0.7573,0.7579,0.758,0.7667,0.7668,0.7692,0.7706,0,0,0,0.7447,0.7454,0.7462,0.7468,0.7488,0.7522,0.7528,0.7548,0.7553,0.7578,0.758,0.7666,0.7667,0.769,0.7703,0.773,0,0,0,0.7442,0.7485,0.7462,0.751,0.7488,0.7539,0.7528,0.7566,0.7589,0.7579,0.7667,0.7668,0.769,0.7702,0.7728,0.7752,0.7762,0,0,0.7496,0.7491,0.7519,0.7501,0.7556,0.7531,0.759,0.7611,0.7612,0.7649,0.7651,0.7693,0.7703,0.7729,0.782,0.7828,0,0,0,0.7537,0.7557,0.7571,0.7594,0.7611,0.7626,0.7638,0.7645,0.7677,0.7631,0.771,0.7716,0.7731,0.7742,0.7749,0.7762,0.7673,0.7673,0.7673,0.7615,0.7614,0.766,0.7664,0.7687,0.7698,0.7715,0.7727,0.772,0.7738,0.7749,0.7804,0.7818,0.7823,0.7836,0.7762,0.7762,0.7762,0.7762,0.7693,0.7721,0.771,0.775,0.7749,0.7783,0.7795,0.7788,0.7819,0.7796,0.781,0.7785,0.7832,0.7843,0.7764,0.7764,0.7764,0.7764,0.7763,0.7744,0.7757,0.7765,0.7798,0.7823,0.7826,0.7856,0.7853,0.7851,0.7864,0.7875,0.7874,0.7873,0.787,0.787,0.787,0.787,0.787,0.787,0.7792,0.7801,0.7827,0.7848,0.7862,0.788,0.7891,0.7905,0.7919,0.7914,0.7914,0.7904,0.7837,0.782,0.7873,0.7873,0.7872,0.7872,0.7872,0.7871,0.7853,0.7893,0.7907,0.7931,0.7955,0.7952,0.7979,0.799,0.8004,0.7992,0.7942,0.7937,0.7931,0.7917,0.7992,0.7992,0.7992,0.7992,0.7913,0.791,0.795,0.7973,0.7994,0.7995,0.8039,0.8047,0.8053,0.806,0.8048,0.8029,0.8024,0.8021,0.8014,0.8,0.8095,0.8095,0.8096,0.7962,0.796,0.7999,0.8005,0.8023,0.8039,0.808,0.8105,0.8108,0.81,0.8064,0.806,0.8029,0.8019,0.801,0.7998,0.7974,0,0]},{"header":{"parameterUnit":"m.s-1","parameterCategory":1,"la1":30.2992,"la2":30.254,"lo1":-89.0895,"lo2":-89.0443,"dy":0.0025,"dx":0.0025,"nx":19,"ny":19,"refTime":"2026-03-26T09:00:00:Z","depth":0,"parameterNumber":3,"parameterNumberName":"V-component_of_WINDS"},"data":[0,0,0,0.5292,0.5293,0.532,0.532,0.5357,0.5357,0,0,0,0,0,0,0,0,0,0,0,0.5286,0.5286,0.5292,0.5293,0.532,0.532,0.5357,0.5357,0,0,0,0,0,0,0,0,0,0,0,0.5285,0.5286,0.5286,0.5293,0.532,0.532,0.5356,0.5335,0,0,0,0,0,0,0,0,0,0,0.5308,0.5304,0.5286,0.5286,0.5293,0.532,0.532,0.5334,0.5336,0.5345,0,0.5354,0,0.5356,0.536,0.536,0,0,0,0.5291,0.5302,0.5308,0.5286,0.5293,0.532,0.5307,0.5335,0.5338,0.5348,0.5354,0.5356,0.5357,0.536,0.536,0.5417,0.5417,0,0,0.529,0.5291,0.5306,0.531,0.5307,0.5307,0.5308,0.5337,0.5343,0.5354,0.5356,0.5357,0.536,0.536,0.5417,0.5417,0,0,0,0.5286,0.529,0.5296,0.5308,0.5313,0.5307,0.5309,0.5342,0.5344,0.5357,0.5358,0.536,0.5361,0.5416,0.5417,0.5436,0,0,0,0.5285,0.5288,0.5295,0.5296,0.5313,0.5328,0.5314,0.5342,0.5345,0.5358,0.536,0.5361,0.5416,0.5417,0.5435,0.5444,0,0,0,0.5283,0.5288,0.5293,0.5296,0.5308,0.5328,0.5331,0.5342,0.5346,0.536,0.5361,0.5416,0.5417,0.5433,0.5443,0.546,0,0,0,0.5281,0.5308,0.5293,0.5324,0.5308,0.534,0.5331,0.5354,0.5368,0.536,0.5416,0.5417,0.5433,0.5441,0.5459,0.5476,0.5483,0,0,0.5316,0.5312,0.533,0.5318,0.5353,0.5335,0.5373,0.5384,0.5383,0.5405,0.5407,0.5435,0.5442,0.546,0.5522,0.5528,0,0,0,0.5342,0.5355,0.5364,0.5378,0.5388,0.5398,0.5403,0.5407,0.5426,0.5395,0.5446,0.545,0.5461,0.5469,0.5473,0.5482,0.5421,0.542,0.542,0.5393,0.5392,0.5422,0.5425,0.5438,0.5444,0.5455,0.5461,0.5455,0.5467,0.5474,0.5512,0.5521,0.5525,0.5534,0.5482,0.5482,0.5483,0.5483,0.5445,0.5463,0.5456,0.5482,0.548,0.5502,0.5508,0.5503,0.5522,0.5506,0.5515,0.5498,0.5531,0.5539,0.5484,0.5484,0.5484,0.5483,0.5483,0.5479,0.5487,0.5493,0.5514,0.553,0.5531,0.5551,0.5548,0.5545,0.5554,0.5561,0.5561,0.556,0.5558,0.5558,0.5558,0.5558,0.5558,0.5558,0.5512,0.5517,0.5535,0.5548,0.5557,0.5569,0.5575,0.5584,0.5593,0.5589,0.5589,0.5582,0.5535,0.5523,0.556,0.556,0.556,0.5559,0.5559,0.5565,0.5553,0.5579,0.5589,0.5605,0.5621,0.5618,0.5635,0.5642,0.5652,0.5642,0.5608,0.5604,0.56,0.559,0.5643,0.5643,0.5643,0.5643,0.5593,0.5591,0.5618,0.5634,0.5648,0.5648,0.5678,0.5683,0.5686,0.569,0.5682,0.5669,0.5665,0.5663,0.5658,0.5649,0.5715,0.5715,0.5715,0.5626,0.5625,0.5652,0.5656,0.5668,0.5679,0.5706,0.5723,0.5724,0.5718,0.5693,0.569,0.5669,0.5662,0.5655,0.5647,0.563,0,0]}]]